When you browse on this site, cookies collect data to enhance your experience and personalize the content and advertising you see.
Visit our Privacy Policy to learn more. By continuing to use the site, you agree to this use of cookies and data.
  • In Czech Republic
  • List of Countries
  • For 7 days
  • Water Temperature
  • Satellite Maps
  • Weather Map
  • Weather Widgets
  • user-avatar
    Login

    Hourly Weather Prince George

    Today, 23 April, Tuesday

    Time Temperature Precipitation Wind Pressure Humidity
    00:00 +3°C° 0 mm 2 mps 700 mmHg 73%
    01:00 +2°C° 0 mm 2 mps 701 mmHg 76%
    02:00 +2°C° 0 mm 2 mps 701 mmHg 78%
    03:00 +1°C° 0 mm 2 mps 701 mmHg 80%
    04:00 +2°C° 0 mm 1 mps 702 mmHg 82%
    05:00 +2°C° 0 mm 2 mps 702 mmHg 75%
    06:00 +3°C° 0 mm 2 mps 702 mmHg 68%
    07:00 +5°C° 0 mm 2 mps 702 mmHg 61%
    08:00 +6°C° 0 mm 2 mps 702 mmHg 53%
    09:00 +8°C° 0 mm 3 mps 702 mmHg 45%
    10:00 +9°C° 0 mm 3 mps 702 mmHg 37%
    11:00 +10°C° 0 mm 3 mps 702 mmHg 36%
    12:00 +11°C° 0 mm 3 mps 702 mmHg 35%
    13:00 +11°C° 0 mm 3 mps 701 mmHg 33%
    14:00 +11°C° 0 mm 3 mps 701 mmHg 34%
    15:00 +11°C° 0 mm 3 mps 701 mmHg 34%
    16:00 +11°C° 0 mm 3 mps 701 mmHg 34%
    17:00 +10°C° 0 mm 3 mps 701 mmHg 39%
    18:00 +8°C° 0 mm 2 mps 701 mmHg 44%
    19:00 +7°C° 0 mm 2 mps 701 mmHg 49%
    20:00 +6°C° 0 mm 2 mps 701 mmHg 52%
    21:00 +4°C° 0 mm 2 mps 702 mmHg 54%
    22:00 +2°C° 0 mm 2 mps 702 mmHg 57%
    23:00 +2°C° 0 mm 2 mps 703 mmHg 60%

    Tomorrow, 24 April, Wednesday

    Time Temperature Precipitation Wind Pressure Humidity
    00:00 +1°C° 0 mm 2 mps 703 mmHg 62%
    01:00 +1°C° 0 mm 2 mps 704 mmHg 65%
    02:00 +1°C° 0 mm 2 mps 705 mmHg 66%
    03:00 -1°C° 0 mm 2 mps 705 mmHg 67%
    04:00 -1°C° 0 mm 2 mps 706 mmHg 68%
    05:00 +1°C° 0 mm 2 mps 707 mmHg 61%
    06:00 +1°C° 0 mm 3 mps 707 mmHg 54%
    07:00 +1°C° 0 mm 3 mps 708 mmHg 47%
    08:00 +2°C° 0 mm 3 mps 708 mmHg 41%
    09:00 +3°C° 0 mm 3 mps 708 mmHg 36%
    10:00 +4°C° 0 mm 3 mps 708 mmHg 30%
    11:00 +5°C° 0 mm 3 mps 708 mmHg 28%
    12:00 +7°C° 0 mm 3 mps 708 mmHg 27%
    13:00 +7°C° 0 mm 4 mps 707 mmHg 25%
    14:00 +7°C° 0 mm 4 mps 707 mmHg 25%
    15:00 +7°C° 0 mm 4 mps 707 mmHg 25%
    16:00 +7°C° 0 mm 4 mps 707 mmHg 26%
    17:00 +7°C° 0 mm 3 mps 707 mmHg 31%
    18:00 +6°C° 0 mm 2 mps 707 mmHg 37%
    19:00 +4°C° 0 mm 2 mps 707 mmHg 42%
    20:00 +3°C° 0 mm 2 mps 707 mmHg 47%
    21:00 +2°C° 0 mm 1 mps 708 mmHg 52%
    22:00 +1°C° 0 mm 1 mps 708 mmHg 57%
    23:00 0°C° 0 mm 1 mps 709 mmHg 59%

    Day after tomorrow, 25 April, Thursday

    Time Temperature Precipitation Wind Pressure Humidity
    00:00 0°C° 0 mm 1 mps 709 mmHg 61%
    01:00 -2°C° 0 mm 0 mps 709 mmHg 63%
    02:00 -2°C° 0 mm 0 mps 709 mmHg 64%
    03:00 -2°C° 0 mm 0 mps 709 mmHg 64%
    04:00 -2°C° 0 mm 0 mps 709 mmHg 65%
    05:00 0°C° 0 mm 0 mps 709 mmHg 58%
    06:00 +1°C° 0 mm 0 mps 709 mmHg 52%
    07:00 +3°C° 0 mm 0 mps 709 mmHg 45%
    08:00 +5°C° 0 mm 0 mps 708 mmHg 38%
    09:00 +8°C° 0 mm 1 mps 708 mmHg 32%
    10:00 +10°C° 0 mm 1 mps 707 mmHg 26%
    11:00 +10°C° 0 mm 1 mps 707 mmHg 25%
    12:00 +11°C° 0 mm 1 mps 706 mmHg 24%
    13:00 +12°C° 0 mm 1 mps 705 mmHg 23%
    14:00 +12°C° 0 mm 1 mps 705 mmHg 24%
    15:00 +10°C° 0 mm 2 mps 704 mmHg 24%
    16:00 +10°C° 0 mm 2 mps 703 mmHg 25%
    17:00 +8°C° 0 mm 2 mps 702 mmHg 32%
    18:00 +7°C° 0 mm 2 mps 702 mmHg 39%
    19:00 +6°C° 0 mm 1 mps 702 mmHg 46%
    20:00 +5°C° 0 mm 1 mps 702 mmHg 47%
    21:00 +4°C° 0 mm 1 mps 702 mmHg 48%
    22:00 +1°C° 0 mm 0 mps 702 mmHg 50%
    23:00 +1°C° 0 mm 0 mps 702 mmHg 50%

    26 April, Friday

    Time Temperature Precipitation Wind Pressure Humidity
    00:00 +1°C° 0 mm 0 mps 702 mmHg 50%
    01:00 +1°C° 0 mm 0 mps 702 mmHg 50%
    02:00 +1°C° 0 mm 0 mps 702 mmHg 51%
    03:00 +1°C° 0 mm 0 mps 702 mmHg 52%
    04:00 +1°C° 0 mm 0 mps 702 mmHg 53%
    05:00 +2°C° 0 mm 0 mps 702 mmHg 50%
    06:00 +3°C° 0 mm 0 mps 702 mmHg 47%
    07:00 +5°C° 0 mm 0 mps 702 mmHg 44%
    08:00 +7°C° 0 mm 0 mps 702 mmHg 39%
    09:00 +9°C° 0 mm 0 mps 702 mmHg 35%
    10:00 +11°C° 0 mm 0 mps 702 mmHg 31%
    11:00 +12°C° 0 mm 0 mps 701 mmHg 29%
    12:00 +13°C° 0 mm 0 mps 701 mmHg 28%
    13:00 +14°C° 0 mm 0 mps 701 mmHg 27%
    14:00 +14°C° 0 mm 1 mps 700 mmHg 28%
    15:00 +13°C° 0 mm 1 mps 700 mmHg 29%
    16:00 +13°C° 0 mm 1 mps 699 mmHg 30%
    17:00 +11°C° 0.2 mm 1 mps 699 mmHg 43%
    18:00 +9°C° 0.2 mm 1 mps 699 mmHg 56%
    19:00 +7°C° 0.2 mm 1 mps 698 mmHg 69%
    20:00 +6°C° 0.2 mm 1 mps 699 mmHg 73%
    21:00 +5°C° 0.2 mm 1 mps 699 mmHg 77%
    22:00 +4°C° 0.2 mm 1 mps 699 mmHg 81%
    23:00 +3°C° 0.1 mm 1 mps 699 mmHg 82%

    27 April, Saturday

    Time Temperature Precipitation Wind Pressure Humidity
    00:00 +2°C° 0.1 mm 1 mps 699 mmHg 83%
    01:00 +2°C° 0.1 mm 1 mps 699 mmHg 83%
    02:00 -1°C° 0.1 mm 2 mps 699 mmHg 82%
    03:00 -1°C° 0.1 mm 2 mps 699 mmHg 81%
    04:00 -1°C° 0.1 mm 2 mps 699 mmHg 80%
    05:00 -1°C° 0.1 mm 2 mps 700 mmHg 75%
    06:00 +1°C° 0.1 mm 2 mps 700 mmHg 70%
    07:00 +1°C° 0.1 mm 2 mps 700 mmHg 65%
    08:00 +2°C° 0 mm 2 mps 701 mmHg 60%
    09:00 +3°C° 0 mm 2 mps 701 mmHg 54%
    10:00 +4°C° 0 mm 2 mps 701 mmHg 49%
    11:00 +4°C° 0 mm 3 mps 702 mmHg 49%
    12:00 +5°C° 0 mm 3 mps 702 mmHg 50%
    13:00 +5°C° 0 mm 3 mps 702 mmHg 50%
    14:00 +5°C° 0.3 mm 4 mps 702 mmHg 54%
    15:00 +5°C° 0.3 mm 4 mps 702 mmHg 57%
    16:00 +5°C° 0.3 mm 4 mps 703 mmHg 60%
    17:00 +5°C° 0.1 mm 4 mps 703 mmHg 60%
    18:00 +4°C° 0.1 mm 3 mps 703 mmHg 60%
    19:00 +3°C° 0.1 mm 3 mps 704 mmHg 61%
    20:00 +2°C° 0 mm 3 mps 705 mmHg 65%
    21:00 +2°C° 0 mm 2 mps 705 mmHg 69%
    22:00 +1°C° 0 mm 2 mps 706 mmHg 74%
    23:00 -1°C° 0 mm 2 mps 706 mmHg 77%

    28 April, Sunday

    Time Temperature Precipitation Wind Pressure Humidity
    00:00 -2°C° 0 mm 2 mps 706 mmHg 80%
    01:00 -3°C° 0 mm 2 mps 707 mmHg 83%
    02:00 -1°C° 0 mm 1 mps 707 mmHg 84%
    03:00 -2°C° 0 mm 1 mps 708 mmHg 85%
    04:00 -2°C° 0 mm 1 mps 708 mmHg 87%
    05:00 0°C° 0 mm 1 mps 708 mmHg 78%
    06:00 +1°C° 0 mm 1 mps 708 mmHg 70%
    07:00 +3°C° 0 mm 1 mps 708 mmHg 61%
    08:00 +5°C° 0 mm 1 mps 708 mmHg 54%
    09:00 +8°C° 0 mm 1 mps 708 mmHg 47%
    10:00 +10°C° 0 mm 1 mps 708 mmHg 40%
    11:00 +11°C° 0.1 mm 1 mps 707 mmHg 38%
    12:00 +12°C° 0.1 mm 1 mps 707 mmHg 37%
    13:00 +13°C° 0.1 mm 1 mps 706 mmHg 36%
    14:00 +12°C° 0.2 mm 1 mps 706 mmHg 38%
    15:00 +10°C° 0.2 mm 2 mps 705 mmHg 39%
    16:00 +10°C° 0.2 mm 2 mps 704 mmHg 41%
    17:00 +9°C° 0.1 mm 1 mps 704 mmHg 48%
    18:00 +8°C° 0.1 mm 1 mps 704 mmHg 55%
    19:00 +6°C° 0.1 mm 1 mps 704 mmHg 62%
    20:00 +5°C° 0 mm 1 mps 704 mmHg 66%
    21:00 +4°C° 0 mm 1 mps 704 mmHg 70%
    22:00 +3°C° 0 mm 1 mps 704 mmHg 73%
    23:00 +2°C° 0 mm 1 mps 704 mmHg 75%
    Show more